Regional Weather Roundup
Issued by NWS Pendleton, OR

Home | Current Version | Previous Version | Text Only | Print | Product List | Glossary On
Versions: 1 2 3 4 5 6 7 8 9 10 11 12 13 14 15 16 17 18 19 20 21 22 23 24 25 26 27 28 29 30 31 32 33 34 35 36 37 38 39 40 41 42 43 44 45 46 47 48 49 50
291
ASUS46 KPDT 120610
RWRPDT
PENDLETON REGIONAL WEATHER ROUNDUP
NATIONAL WEATHER SERVICE PENDLETON OREGON
1000 PM PST THU FEB 11 2016

NOTE: FAIR INDICATES FEW OR NO CLOUDS BELOW 12,000 FEET WITH NO
SIGNIFICANT WEATHER AND/OR OBSTRUCTIONS TO VISIBILITY.

# INDICATES UNOFFICIAL STATION AND DATA

WAZ520-120710-
EAST SLOPES OF WASHINGTON CASCADES

CITY            SKY/WX      TMP DP  RH  WIND    PRES   REMARKS
#BUMPING DAM    N/A         34  N/A N/A E1      N/A
#CLE ELUM HS    N/A         35  34  96  CALM    30.15F
#CLE ELUM 2NW   N/A         34  34  100 S1      N/A
#CLE ELUM LAKE  N/A         36  35  96  CALM    30.22F
#CLIFFDEL 2NW   N/A         37  37  100 N2      N/A
#GLENWOOD       N/A         36  35  96  CALM    30.24F
#MANASTASH CYN  N/A         34  31  89  CALM    30.15F
#NELSON 3SW     N/A         33  32  96  CALM    30.45F
#NILE           N/A         35  34  96  CALM    29.50F
#PEOH POINT     N/A         35  35  100 E8      N/A
#RONALD 2NW     N/A         36  N/A N/A CALM    30.04F
#TEANAWAY 4NE   N/A         36  36  100 CALM    N/A
#TROUT LAKE 1NE N/A         37  36  96  CALM    30.24F
#TROUT LAKE 1E  N/A         36  36  100 CALM    30.15F
$$

WAZ521-120710-
SIMCOE HIGHLANDS

CITY            SKY/WX      TMP DP  RH  WIND    PRES   REMARKS
#BICKLETON HS   N/A         39  39  100 CALM    N/A
#SATUS PASS DOT N/A         37  35  92  CALM    N/A
#CENTERVILLE 1SWN/A         40  38  92  CALM    30.20S
#GOLDENDALE     N/A         43  42  96  SE1     N/A
#GOLDENDALE 1NE N/A         43  40  89  CALM    N/A
#GOODNOE HILLS  N/A         43  39  86  CALM    30.12S
#LYLE 6NE       N/A         42  41  96  CALM    30.20S
$$

WAZ026-120710-
KITTITAS VALLEY

CITY            SKY/WX      TMP DP  RH  WIND    PRES   REMARKS
ELLENSBURG AP   CLOUDY      36  33  89  CALM    30.21F FOG
#ELLENSBURG CWU N/A         35  34  96  N1      30.23S
#ELLENSBURG 3NE N/A         34  33  96  CALM    30.21F
#ELLENSBURG     N/A         36  36  100 S1      N/A
#ELLENSBURG 1E  N/A         34  N/A N/A CALM    N/A
#KITTITAS 4N    N/A         34  32  92  CALM    30.25F
#KITTITAS 3S    N/A         33  32  96  CALM    30.28S
#THORP 6N       N/A         36  35  96  E5      30.27F
$$

WAZ027-120710-
YAKIMA VALLEY

CITY            SKY/WX      TMP DP  RH  WIND    PRES   REMARKS
SUNNYSIDE AP    FOG         40  40  100 CALM    30.23F VSB<1/4
6HR MIN TEMP:   40; 6HR MAX TEMP:   46; 6HR PCP:  0.05;

YAKIMA AIRPORT  CLOUDY      43  39  86  W6      30.22F
6HR MIN TEMP:   43; 6HR MAX TEMP:   48; 6HR PCP:  0.09;

YAKIMA-VAGABOND MOCLDY      40  38  92  W1      30.19F
6HR MIN TEMP:   40; 6HR MAX TEMP:   45; 6HR PCP:  0.10;

#DONALD 2NE     N/A         43  37  79  N2      29.06F
#GRANDVIEW      N/A         43  41  93  CALM    30.26F
#MABTON         N/A         43  42  96  CALM    30.23F
#MOXEE 2E       N/A         42  40  93  CALM    30.18F
#NACHES 2SW     N/A         39  38  96  CALM    30.21F
#TERRACE HTS    N/A         42  41  96  CALM    30.23S
#TOPPENISH      N/A         43  42  96  CALM    30.16F
#WEST VALLEY    N/A         42  40  93  CALM    30.23F
#W YAKIMA       N/A         41  39  93  CALM    30.25F
#WHITE SWAN 5E  N/A         42  41  96  CALM    30.25F
#WILEY CITY 3W  N/A         38  34  85  CALM    30.18
$$

WAZ028-120710-
LOWER COLUMBIA BASIN...WASHINGTON

CITY            SKY/WX      TMP DP  RH  WIND    PRES   REMARKS
PASCO           CLOUDY      43  41  93  CALM    30.25F
PROSSER AWOS    N/A         43  43  100 NW5     30.26F
RICHLAND AWOS   CLOUDY      44  42  93  CALM    30.25F
#BENTON CITY    N/A         43  41  93  CALM    30.16S
#CONNELL 5N     N/A         40  39  96  NW1     30.25S
#ELTOPIA 6NW    N/A         42  41  96  CALM    29.20S
#KAHLOTUS       N/A         41  40  96  N8      30.25S
#KENNEWICK 3S   N/A         43  41  93  CALM    30.26F
#PATERSON       N/A         44  40  86  NE2     30.23F
#PROSSER DOT    N/A         44  44  100 NW1     N/A
#PROSSER        N/A         44  41  89  CALM    30.24F
#SAGEMOOR 2W    N/A         43  41  93  CALM    30.09F
#TOUCHET 2S     N/A         44  42  93  W2      30.24S
#WEST PASCO     N/A         44  41  89  CALM    30.27F
$$

WAZ029-120710-
FOOTHILLS OF THE BLUES...WASHINGTON

CITY            SKY/WX      TMP DP  RH  WIND    PRES   REMARKS
WALLA WALLA AP  CLOUDY      43  41  93  S5      30.23R FOG
6HR MIN TEMP:   42; 6HR MAX TEMP:   46; 6HR PCP:  0.05;

#CLYDE 6NW      N/A         42  41  96  SW2     30.25R
#DAYTON SCHOOL  N/A         44  39  82  CALM    30.20F
#DELANEY DOT    N/A         45  43  93  N6      N/A
#PLEASANT VIEW 1N/A         42  41  96  SW2     30.28S
#PRESCOTT       N/A         44  43  96  CALM    30.23S
#WHITMAN COLLEGEN/A         43  42  96  N3      30.30S
#WAITSBURG 5S   N/A         41  40  96  NW1     30.32S
#WAITSBURG 8N   N/A         42  29  60  E1      30.06S
#WALLA WALLA 5E N/A         43  42  96  SW6     N/A
#WALLA WALLA U  N/A         44  42  93  CALM    30.24S
#WHITMAN MISSIONN/A         43  41  93  W1      30.26S
$$

WAZ030-120710-
BLUE MOUNTAINS...WASHINGTON

CITY            SKY/WX      TMP DP  RH  WIND    PRES   REMARKS
#DIXIE 5SE      N/A         43  40  89  W3      30.11S
#SKI BLUEWOOD   N/A         36  34  92  CALM    30.19F
$$

ORZ009-041-WAZ024-120710-
COLUMBIA RIVER GORGE

CITY            SKY/WX      TMP DP  RH  WIND    PRES   REMARKS
HOOD RIVER AP   MOCLDY      43  43  100 CALM    30.23S FOG
THE DALLES AP   CLOUDY      43  42  96  CALM    30.24S FOG
#ARLINGTON AIRPON/A         42  40  93  CALM    30.25S
#CELILO DOT     N/A         44  41  89  S8      N/A
#LYLE           N/A         46  44  93  W2      30.26R
#MARYHILL       N/A         44  42  93  CALM    N/A
#MARYHILL 2W    N/A         44  44  100 CALM    N/A
#MOSIER 1S      N/A         42  39  89  CALM    30.23S
#MURDOCK        N/A         45  44  96  CALM    30.22R
#RUFUS DOT      N/A         45  44  96  S6      N/A

$$

ORZ510-120710-
NORTH CENTRAL OREGON

CITY            SKY/WX      TMP DP  RH  WIND    PRES   REMARKS
#CHENOWITH 1W   N/A         41  40  96  E6      N/A
#COW CYN RST AREN/A         41  41  100 N2      N/A
#DUFUR 9E       N/A         39  38  96  CALM    30.26S
#GRASS VALLEY 1SN/A         40  39  96  E2      30.24F
#KENT DOT       N/A         40  37  89  N1      N/A
#MAUPIN SCHOOL  N/A         44  41  89  CALM    30.23S
#MORO SCHOOL    N/A         41  41  100 CALM    30.21S
#SHANIKO 4NW    N/A         41  39  93  E2      30.17F
#TYGH VALLEY 2NEN/A         45  43  93  CALM    30.22S
#WAPANITIA AIRPON/A         44  43  96  CALM    30.24S
#WASCO DOT      N/A         40  38  92  SE3     N/A
#WASCO 5NE      N/A         41  39  93  CALM    30.24S
$$

ORZ511-120710-
CENTRAL OREGON

CITY            SKY/WX      TMP DP  RH  WIND    PRES   REMARKS
BEND AIRPORT    PTCLDY      37  36  96  CALM    30.18S
MADRAS AIRPORT  CLOUDY      43  43  100 CALM    30.21F
PRINEVILLE AP   FOG         34  34  100 CALM    30.19S VSB 1/4
REDMOND AIRPORT CLOUDY      41  38  89  CALM    30.18F FOG
6HR MIN TEMP:   40; 6HR MAX TEMP:   52;

#ASHWOOD SCHOOL N/A         38  37  96  CALM    30.14S
#BEND 6E        N/A         37  33  85  CALM    30.19F
#BEND 1SW       N/A         36  33  89  E1      N/A
#BEND-KIM LN    N/A         38  36  92  SW1     30.15F
#LAKE BILLY CHINN/A         44  N/A N/A E6      30.25S
#MADRAS         N/A         43  43  100 CALM    N/A
#POWELL BUTTE 3EN/A         36  36  100 S1      N/A
#PRINEVILLE 3N  N/A         35  33  92  CALM    30.20S
#WARM SPRINGS   N/A         44  42  93  CALM    30.17F

$$


ORZ509-120710-
EAST SLOPES OF OREGON CASCADES

CITY            SKY/WX      TMP DP  RH  WIND    PRES   REMARKS
SISTERS AWOS    N/A         41  39  93  SW6     30.15R
#BLUE BOX PASS  N/A         39  N/A N/A N2      N/A
#BLACK BUTTE RNCN/A         37  36  96  CALM    30.23S
#CAMP SHERMAN   N/A         33  31  92  CALM    30.34S
#LA PINE 4NW    N/A         32  28  85  CALM    30.23S
#LAVA BUTTE DOT N/A         33  31  92  SW6     N/A
#SISTERS AIRPOR N/A         41  41  100 N2      30.17S
#SISTERS ODOT   N/A         41  N/A N/A CALM    N/A
#SISTERS 3N     N/A         41  38  89  CALM    30.18S
#SUNRIVER       N/A         33  30  89  N1      30.23S
#SUTTLE LK DOT  N/A         28  28  100 SW21G29 N/A    WCI 14
#TUMALO 3W      N/A         40  39  96  CALM    30.06F
#WANOGA BUTTE D N/A         42  27  55  CALM    N/A

$$

ORZ044-120710-
LOWER COLUMBIA BASIN...OREGON

CITY            SKY/WX      TMP DP  RH  WIND    PRES   REMARKS
HERMISTON       MOCLDY      42  40  93  E6      30.22F
6HR MIN TEMP:   40; 6HR MAX TEMP:   50; 6HR PCP:  0.02;

#BOARDMAN SCHOOLN/A         45  42  89  CALM    30.24F
#BOARDMAN 8SW   N/A         42  40  93  N3      30.23F
#I-84 EX 198 DOTN/A         43  42  96  N2      N/A
#IONE SCHOOL    N/A         41  28  59  CALM    30.18F
#IRRIGON 4NW    N/A         45  44  96  N2      N/A
#UMATILLA SCHOOLN/A         41  41  100 CALM    30.26R
#UMATILLA       N/A         45  39  79  CALM    30.19S
$$

ORZ507-120710-
NORTHERN FOOTHILLS OF THE BLUES

CITY            SKY/WX      TMP DP  RH  WIND    PRES   REMARKS
PENDLETON AIRPT PTCLDY      37  37  100 N8      30.20F
#ADAMS 3WNW     N/A         40  38  92  N6      30.22S
#ATHENA         N/A         40  39  96  E2      30.25S
#CAYUSE         N/A         41  39  93  W1      30.22R
#HELIX SCHOOL   N/A         40  39  96  N8      30.23R
#HELIX 3N       N/A         40  39  96  N8      30.16S
#HOLDMAN 5SE    N/A         41  39  93  CALM    30.20R
#HOLDMAN 6E     N/A         40  39  96  S7      30.03S
#PENDLETON DNTN N/A         43  36  76  CALM    30.25S
#PDT AQUATIC CTRN/A         42  35  76  N6      30.22S
#PDT SUNRIDGE   N/A         42  40  93  CALM    30.23R
#PENDLETON 7NW  N/A         42  37  82  CALM    32.08S
#PILOT ROCK     N/A         40  34  79  CALM    30.20R
#TUTUILLA       N/A         41  39  93  CALM    30.23R
#WESTON SCHOOL  N/A         40  37  89  E6      30.16R

$$

ORZ508-120710-
SOUTHERN FOOTHILLS OF THE BLUES

CITY            SKY/WX      TMP DP  RH  WIND    PRES   REMARKS
#CONDON SCHOOL  N/A         40  39  96  N2      30.13S
#CONDON 5W      N/A         38  36  92  E1      30.15R
#FOSSIL SCHOOL  N/A         42  41  96  CALM    30.12R
#HEPPNER EOC    N/A         41  40  96  CALM    30.16S
#HEPPNER 4NE    N/A         39  38  96  CALM    30.21S
#LEXINGTON 2SE  N/A         44  41  89  CALM    30.18F
#MIKKALO        N/A         41  40  96  NE1     30.30S
#OLEX 4N        N/A         42  41  96  CALM    30.20S
#RUGGS 5NE      N/A         40  39  96  N1      30.30F
#RUGGS 2SW      N/A         39  38  96  N1      30.23S

$$

ORZ502-503-120710-
BLUE MOUNTAINS

CITY            SKY/WX      TMP DP  RH  WIND    PRES   REMARKS
MEACHAM         MOCLDY      41  31  67  CALM    30.19F
6HR MIN TEMP:   38; 6HR MAX TEMP:   43; 6HR PCP:  0.05;

#BATTLE MTN DOT N/A         40  39  96  S8      N/A
#LADD CYN SMT   N/A         36  28  72  SE15    N/A    WCI 27
#LADD CREEK ODOTN/A         42  31  65  S12     N/A    WCI 35
#LONG CREEK HS  N/A         41  38  89  CALM    N/A
#N POWDER DOT   N/A         35  31  85  SW10    N/A
#PIKES PEAK     N/A         44  39  82  S1      27.99S
#TROY SCHOOL    N/A         42  40  93  CALM    30.15F
#UKIAH          N/A         34  32  92  CALM    30.17S
$$

ORZ505-120710-
JOHN DAY BASIN

CITY            SKY/WX      TMP DP  RH  WIND    PRES   REMARKS
JOHN DAY        MOCLDY      42  32  67  E8      30.21S
#DAYVILLE SCHOOLN/A         41  34  76  CALM    30.15S
#MITCHELL       N/A         37  36  96  CALM    30.33S
#MITCHELL 8NW   N/A         41  37  86  CALM    30.37S
#MONUMENT HS    N/A         40  33  76  CALM    30.09F
#MT. VERNON 5SE N/A         48  30  49  S5      30.15F
#WINLOCK        N/A         40  35  82  CALM    30.14S
$$

ORZ506-120710-
OCHOCO AND JOHN DAY HIGHLANDS

CITY            SKY/WX      TMP DP  RH  WIND    PRES   REMARKS
#HORSE RIDGE DO N/A         35  32  89  E8      N/A
#KEYES SMT DOT  N/A         42  33  70  E8      N/A
#PAULINA SCHOOL N/A         51  37  59  CALM    30.14S
#PINE MTN OBS   N/A         45  34  65  S14     N/A    WCI 39
#PRAIRIE CITY   N/A         40  31  70  CALM    30.18S
#SENECA         N/A         33  N/A N/A W1      N/A
#SENECA 9NW     N/A         30  27  88  CALM    30.28
$$

ORZ049-120710-
GRANDE RONDE VALLEY

CITY            SKY/WX      TMP DP  RH  WIND    PRES   REMARKS
LA GRANDE       PTCLDY      43  28  55  S20G25  30.24R WCI 34
#COVE           N/A         40  37  89  N2      30.26S
#COVE SCHOOL    N/A         40  36  85  CALM    30.24F
#COVE 6NW       N/A         39  31  73  S8      30.26S
#ELGIN 3N       N/A         39  31  73  CALM    30.21S
#ELGIN 1E       N/A         40  35  82  CALM    N/A
#IMBLER SCHOOL  N/A         39  33  79  SE2     30.21R
#ISLAND CITY 4N N/A         49  48  96  CALM    30.13R
#LADD CYN DOT   N/A         44  33  65  S23     N/A    WCI 35
#UNION 1S       N/A         40  33  76  S9      30.24S
$$

ORZ050-120710-
WALLOWA COUNTY

CITY            SKY/WX      TMP DP  RH  WIND    PRES   REMARKS
#ENTERPRISE AP  N/A         35  32  89  CALM    30.14R
#ENTERPRISE HS  N/A         35  33  92  W1      30.23R
#IMNAHA SCHOOL  N/A         45  43  93  N2      30.21S
#IMNAHA 10S     N/A         42  36  79  CALM    30.19S
#JOSEPH 3N      N/A         33  29  85  W7      30.22R
#JOSEPH 3W      N/A         33  32  96  CALM    30.06R
#LOSTINE        N/A         33  32  96  CALM    30.15R
#MT HOWARD 8000 N/A         43  32  65  SW10    30.26S
#PROMISE 1S     N/A         35  33  92  CALM    30.41F
#WALLOWA SCHOOL N/A         34  33  96  CALM    30.21S



$$



USA.gov is the U.S. government's official web portal to all federal, state and local government web resources and services.